Wind_Speed
13 13 14 14 14 14 14 14 14 14 14 14 14 14 13 13 13 13 13 13 13 13 14 14 15 16 16 16 17 17 17 16 16 17 17 17 18 18 18 18 18 18 18 18 18 19 18 18 19 19 18 18 18 18 18 18 18 19 20 22 22 21 22 19 17 19 21 20 20 20 20 22 22 20 22 24 23 21 19 16 17 18 17 18 18 17 19 19
15 15 15 15 15 15 15 15 15 15 15 15 15 15 15 16 16 16 15 15 15 15 15 15 15 16 16 17 18 18 18 17 17 18 18 18 18 19 19 19 19 19 19 19 20 20 19 20 20 20 20 20 20 20 20 19 19 21 23 25 25 22 22 22 20 20 22 23 23 22 22 24 24 23 25 26 24 23 21 16 16 19 17 17 19 19 21 21
16 17 17 17 17 17 17 17 17 17 17 17 17 16 17 17 17 17 18 18 18 18 18 17 17 17 17 18 18 19 19 18 17 18 19 19 19 19 20 20 20 20 20 20 20 20 20 20 20 21 21 21 21 21 21 21 21 24 25 27 26 22 23 24 22 21 22 24 26 25 24 25 24 25 27 28 27 25 22 17 17 21 18 17 20 22 22 20
17 17 17 18 18 18 18 18 18 18 18 18 18 18 18 18 19 19 19 19 19 20 20 20 20 20 20 20 20 20 21 20 18 17 18 18 18 18 18 19 19 20 20 20 20 20 20 20 20 20 21 21 22 22 22 22 23 26 27 28 26 24 25 25 23 23 23 25 26 26 26 27 25 26 28 29 30 27 21 18 19 22 21 20 21 23 22 20
18 18 18 18 18 18 19 19 19 19 19 19 19 20 19 20 20 20 20 20 21 21 21 21 21 21 22 22 22 22 23 21 16 14 16 16 17 18 18 18 18 19 20 20 20 20 21 21 21 21 22 23 23 24 24 23 24 27 29 28 26 25 27 25 24 24 24 25 26 27 27 28 28 28 28 30 32 29 22 19 20 22 23 24 23 23 21 20
19 19 19 19 19 19 19 20 20 20 20 21 21 21 21 21 21 21 21 21 22 22 22 22 22 22 23 23 23 23 24 21 15 16 19 20 21 20 20 20 20 21 22 22 22 23 23 23 23 23 24 24 24 24 24 24 25 28 29 28 26 26 28 26 25 26 26 26 26 26 27 28 29 29 29 33 33 28 23 21 22 23 25 26 25 23 22 21
21 21 21 21 21 21 21 21 21 21 22 22 22 22 22 22 22 22 22 22 22 22 23 22 23 23 23 24 24 24 27 22 16 19 23 23 23 22 21 21 21 22 23 24 24 25 25 25 25 24 25 25 25 25 25 25 26 29 30 28 27 28 28 27 27 29 28 28 27 27 28 27 29 30 32 36 34 28 24 22 23 25 25 26 26 23 22 22
23 23 23 22 22 22 22 22 22 22 23 23 23 23 24 24 24 24 23 24 23 24 24 23 24 24 24 25 25 27 28 22 16 19 22 22 22 21 21 21 21 22 22 23 24 24 25 25 25 25 26 26 27 27 27 27 28 30 30 29 29 30 30 29 30 32 32 31 30 31 31 28 28 31 36 38 35 29 25 23 24 26 26 27 27 25 24 24
24 24 24 24 23 23 23 23 23 23 23 24 24 24 24 24 24 24 24 24 24 25 25 25 25 25 25 25 26 28 24 17 15 18 19 20 21 20 20 21 22 23 23 24 24 25 25 26 26 26 27 28 29 29 29 30 31 31 31 31 32 33 32 33 34 34 34 33 33 35 34 30 29 34 39 37 33 29 24 24 25 27 28 28 28 27 26 27
26 26 26 25 25 25 25 25 25 25 25 25 25 25 25 25 25 24 24 25 25 25 25 25 25 25 25 24 26 27 19 15 17 19 20 21 22 22 22 23 24 25 26 27 27 27 27 28 28 29 29 30 30 30 31 32 33 33 34 35 35 34 35 35 36 35 36 36 36 38 37 33 30 36 39 32 31 30 26 26 26 27 28 28 29 29 30 31
26 26 26 26 26 26 26 26 26 26 27 27 27 27 27 26 26 26 26 26 26 26 27 27 26 27 26 25 26 23 18 19 20 20 22 22 22 23 24 25 26 26 28 28 28 28 29 29 30 30 30 30 30 30 31 32 34 34 35 37 36 36 36 37 38 37 37 37 37 39 39 35 32 36 36 30 31 32 29 27 26 27 28 28 30 31 32 32
27 27 27 26 26 26 27 27 27 27 28 28 28 28 28 27 27 27 27 27 27 27 27 27 28 28 28 27 24 22 22 23 24 23 23 22 21 23 24 26 27 28 29 29 30 30 30 31 31 30 30 31 30 30 31 32 34 35 36 38 37 38 38 37 38 36 37 38 37 39 39 38 36 35 33 29 31 32 31 30 28 29 29 30 32 32 33 33
29 28 28 28 28 28 28 28 28 29 29 29 29 29 29 29 29 28 28 28 28 28 28 28 28 29 30 28 23 23 25 25 26 26 25 24 23 23 24 26 28 29 30 31 31 31 31 32 32 31 30 31 30 29 31 33 36 36 37 39 39 40 39 36 36 35 35 36 37 37 39 41 38 34 31 29 33 34 33 32 30 30 31 31 32 33 35 34
30 30 30 30 30 29 29 29 29 30 30 30 30 30 30 30 30 30 30 29 29 29 28 29 29 29 31 29 25 25 27 27 28 28 27 26 26 25 26 27 29 30 31 31 30 30 31 31 31 31 29 28 27 28 31 34 36 35 36 39 38 39 38 34 33 34 34 36 38 38 41 46 42 35 31 30 33 35 35 34 32 33 33 33 34 35 36 35
30 30 30 30 30 29 29 29 29 30 30 30 30 30 30 30 30 30 30 29 29 29 29 30 30 30 32 31 27 27 27 27 27 26 26 26 25 26 26 28 29 30 30 29 29 30 30 31 31 30 27 25 25 28 32 35 35 33 35 39 38 39 40 33 28 30 35 38 40 40 42 47 45 37 33 31 34 36 37 37 36 36 37 36 36 36 37 36
29 29 29 29 28 28 28 28 28 28 29 30 30 30 30 30 30 30 30 30 30 30 30 30 30 30 32 31 29 28 27 27 27 27 27 26 25 26 26 27 28 29 31 31 32 31 31 32 32 30 28 27 27 29 33 35 35 33 35 39 39 40 40 36 30 28 34 40 43 43 44 48 46 40 36 33 35 37 39 40 39 40 40 39 39 38 37 35
28 28 28 28 28 28 27 27 27 27 28 29 30 31 31 31 31 30 30 31 31 31 31 31 32 33 34 33 30 28 28 28 26 25 24 24 24 25 26 27 27 28 29 29 29 29 31 32 32 32 29 26 26 27 30 32 34 35 37 40 40 39 38 38 36 30 31 41 45 46 50 53 48 42 39 36 35 38 40 42 42 42 43 41 40 37 34 33
28 28 28 28 28 28 28 28 28 27 28 29 30 31 31 32 32 32 32 32 32 32 33 32 32 32 30 28 26 25 25 26 25 25 25 26 28 29 29 30 30 30 30 30 30 31 32 33 33 31 27 26 27 28 32 33 36 40 39 41 41 40 39 40 41 35 33 42 47 50 54 54 49 45 42 39 37 39 42 43 44 43 42 40 39 37 35 35
29 29 29 29 29 29 29 29 29 29 29 29 31 31 32 32 32 32 32 32 32 32 32 32 32 31 29 27 27 28 29 29 29 30 30 31 32 33 33 33 33 33 33 32 33 33 32 33 33 31 30 33 33 35 38 38 40 41 41 42 42 43 44 43 43 39 37 45 49 49 53 53 51 48 45 43 41 42 43 43 43 41 40 39 38 38 36 34
28 29 29 29 29 29 29 29 30 30 29 29 30 31 32 32 32 33 33 32 31 31 32 32 33 35 34 32 31 31 32 31 30 30 31 33 34 35 35 36 36 35 34 33 34 34 33 36 38 36 35 36 36 37 39 38 38 39 40 41 42 45 47 44 43 40 38 47 52 49 52 54 52 51 49 46 43 43 43 42 42 40 38 38 36 35 33 30
28 28 28 28 28 28 28 29 29 29 29 29 29 30 31 32 32 34 35 34 30 31 33 33 34 37 35 32 31 31 32 32 30 30 30 32 33 35 37 38 38 38 36 33 33 34 36 41 41 38 36 37 36 36 36 37 36 37 39 41 43 44 46 45 42 39 38 46 52 49 53 57 53 51 48 44 44 44 42 38 36 34 33 33 33 31 29 26
26 27 27 28 28 28 28 29 29 29 29 29 29 30 30 31 32 34 38 40 35 32 34 34 35 38 35 31 32 31 32 33 30 29 29 31 33 35 38 39 40 40 38 34 34 36 40 44 42 35 32 32 32 32 32 33 34 35 36 40 43 42 44 46 41 39 39 44 51 50 54 59 53 51 48 44 43 36 29 26 25 27 31 33 32 29 26 24
26 26 26 26 26 27 27 28 29 28 28 28 28 29 30 31 32 34 37 42 42 36 35 37 38 37 33 31 31 30 33 34 31 29 29 31 34 34 37 40 40 40 40 38 37 39 41 40 35 29 28 30 31 32 31 32 35 37 36 38 43 41 41 45 42 37 36 41 47 47 54 60 50 42 30 19 21 21 21 25 28 32 34 32 28 25 22 17
25 25 25 25 25 25 25 27 27 27 27 27 28 28 30 31 33 35 37 42 46 40 35 35 36 33 27 25 27 28 32 33 32 32 30 32 35 35 38 39 40 41 41 40 39 43 43 39 34 32 33 34 35 34 32 33 36 38 38 38 40 38 36 41 41 37 36 39 39 40 49 49 28 11 1 2 16 30 30 31 34 33 27 20 17 14 10 7
22 22 22 22 22 23 23 24 24 25 25 25 26 27 28 29 31 34 36 40 43 37 29 24 22 20 14 11 14 19 24 26 28 29 28 31 33 34 37 37 38 40 40 38 39 43 43 37 34 34 34 33 34 33 29 29 35 38 36 32 32 32 32 35 34 34 36 30 26 27 29 24 9 4 12 22 31 32 27 30 30 21 11 9 8 2 1 2
21 21 21 21 22 22 23 23 22 23 24 24 24 25 26 27 30 32 34 37 37 28 17 7 3 4 5 6 5 8 12 13 13 16 18 21 24 28 32 34 35 37 37 37 36 39 38 31 28 27 27 26 27 27 23 22 30 36 32 26 26 28 30 31 27 27 27 21 23 24 15 20 29 25 28 32 24 20 23 23 16 7 5 5 1 7 5 3
22 22 21 22 22 23 23 23 23 24 25 24 23 24 25 26 28 30 29 25 21 13 5 6 4 1 5 9 9 11 13 11 10 12 12 13 15 18 22 26 28 29 32 32 31 31 29 25 23 22 22 22 22 22 22 20 25 33 30 27 27 28 28 28 26 24 27 30 32 26 14 21 38 35 28 29 22 19 19 12 6 6 6 1 9 9 2 0
24 24 24 24 24 25 25 23 23 22 21 21 20 20 22 24 25 26 20 10 6 5 3 3 5 6 8 11 13 14 15 14 12 12 11 12 14 16 17 20 20 21 24 26 30 30 27 27 27 26 26 27 26 25 24 23 25 30 29 28 28 27 27 28 28 26 29 31 23 12 5 10 31 39 30 26 17 11 11 7 5 8 7 5 11 7 4 4
24 25 25 26 27 28 28 28 26 25 24 23 21 20 22 23 25 22 12 4 5 7 8 11 12 12 13 14 14 14 14 15 14 14 14 15 17 19 19 19 19 22 23 25 31 30 27 28 28 27 27 26 24 22 22 23 25 28 29 30 28 26 27 26 28 28 24 22 13 6 4 6 27 38 21 10 5 4 5 6 8 7 6 2 8 6 7 9
25 25 26 27 29 29 30 30 29 30 30 27 24 23 23 24 24 16 6 8 10 11 14 14 12 11 11 11 13 14 15 17 17 17 18 17 17 18 18 19 20 24 25 26 31 31 28 29 27 27 24 22 20 21 23 24 26 29 29 31 29 27 28 25 26 24 14 14 17 15 13 10 15 17 5 0 1 4 6 6 1 7 6 5 8 9 13 15
27 27 28 30 30 30 30 29 28 29 28 26 24 24 24 23 20 10 7 11 14 13 14 11 6 4 4 5 8 10 12 13 13 13 14 14 15 15 16 18 18 21 24 26 28 27 25 25 26 27 24 22 23 24 26 27 27 29 28 29 26 20 18 14 14 11 3 9 18 16 14 15 17 9 2 1 2 1 6 12 16 9 1 4 9 13 18 21
29 30 31 31 31 30 30 28 27 27 26 26 24 24 23 20 18 18 17 16 11 5 6 4 3 3 3 6 7 7 9 10 11 12 15 17 18 19 20 21 21 21 22 24 25 27 29 31 29 29 30 30 27 25 26 27 26 27 28 26 16 8 7 4 2 2 5 13 18 13 7 16 32 32 21 20 21 19 20 18 11 4 6 14 18 18 21 23
31 32 32 32 32 31 30 28 27 26 26 26 23 24 22 14 14 21 21 17 10 8 11 13 15 18 20 24 23 20 20 21 21 22 24 26 27 28 27 27 28 27 25 25 27 28 30 34 34 31 31 28 23 21 23 23 22 22 23 21 12 3 2 3 3 3 7 13 16 14 11 16 32 36 27 22 16 9 9 10 13 19 23 23 18 15 17 19
33 35 35 35 34 32 31 29 28 28 27 26 24 23 20 19 22 24 24 24 22 22 27 30 31 32 33 33 32 29 28 28 29 30 31 31 30 30 28 27 27 29 30 28 28 25 21 26 32 28 24 23 24 24 24 25 25 25 25 21 17 14 9 5 4 3 6 9 8 8 8 9 18 18 12 11 10 12 20 26 28 25 17 11 9 9 12 18
37 37 37 37 36 34 33 31 31 31 28 27 26 23 26 31 31 29 30 31 29 28 31 31 31 32 34 34 34 33 30 25 24 24 25 25 26 27 27 26 25 27 29 25 23 21 16 22 30 25 23 29 31 28 26 24 24 25 24 20 21 25 23 16 14 17 15 9 7 11 13 22 33 36 36 37 37 36 31 24 16 9 9 11 14 14 13 16
39 39 38 38 36 35 34 34 34 32 30 28 26 29 39 41 36 32 32 31 27 24 25 25 26 29 31 32 31 28 23 20 19 19 20 22 24 27 29 29 29 30 30 29 27 21 16 24 32 29 27 28 27 25 23 22 21 21 20 20 23 26 26 21 17 20 17 8 12 19 22 34 43 47 47 39 30 23 14 12 12 12 13 10 9 12 12 13
39 39 39 37 35 33 34 35 34 32 31 29 30 38 46 46 42 41 39 37 35 30 27 26 25 24 22 20 22 22 18 17 17 18 20 21 20 22 24 25 26 27 27 27 28 24 23 32 39 37 34 30 29 29 27 27 25 22 20 22 24 19 21 20 10 6 7 6 11 19 27 33 29 31 37 27 19 17 16 22 25 18 8 8 8 11 14 18
38 38 38 36 33 31 31 31 31 32 30 30 37 44 47 46 46 44 41 40 39 35 32 29 26 24 23 23 27 27 23 20 18 17 20 21 19 18 19 20 20 23 25 26 29 28 27 29 33 38 37 30 28 30 30 28 27 26 27 28 25 17 15 16 9 3 5 6 5 12 24 30 29 37 44 37 34 34 29 26 22 14 12 13 13 17 23 28
37 35 35 35 32 29 28 28 28 29 30 34 41 43 45 46 45 43 41 40 38 34 33 32 30 28 28 30 30 29 26 23 20 18 18 17 16 14 13 13 14 16 19 22 26 29 26 21 21 31 32 22 19 26 28 25 24 26 28 29 30 26 21 19 15 7 6 6 6 9 12 17 29 41 43 38 38 37 31 26 21 20 21 21 24 29 35 36
34 32 33 32 30 26 25 25 26 28 32 38 41 42 43 43 42 40 40 38 36 33 32 33 32 31 32 33 32 31 30 29 27 26 24 22 22 21 18 18 19 20 22 22 24 25 24 21 21 28 31 25 23 28 28 25 23 24 26 27 29 30 27 23 20 19 15 7 4 5 5 12 29 38 40 41 38 34 36 36 33 33 33 32 35 38 38 37
29 29 30 28 26 25 23 23 27 30 33 36 37 39 40 39 39 39 39 38 36 33 32 32 32 32 32 33 33 33 31 31 31 30 30 31 30 28 26 24 25 26 27 28 27 24 21 19 19 23 28 33 36 36 34 31 28 26 26 27 27 29 28 19 13 22 27 17 10 10 8 17 36 43 43 44 40 37 39 38 37 37 37 37 38 39 41 41
27 27 27 25 24 24 23 25 27 28 32 34 34 35 35 35 36 36 37 39 37 34 33 34 35 35 35 35 36 36 34 35 36 34 35 36 34 33 31 29 28 28 29 31 33 33 30 27 27 29 34 41 44 42 39 36 34 32 30 30 31 32 32 25 16 20 26 25 24 21 13 18 32 37 37 38 36 35 35 34 35 38 39 41 42 42 42 40
26 26 25 24 24 22 22 25 27 28 32 33 32 31 31 33 35 34 35 37 35 33 33 33 34 34 34 34 33 33 34 34 36 37 37 37 37 36 35 34 34 34 35 36 34 33 31 27 28 31 34 37 38 38 38 36 33 32 31 32 35 35 37 37 31 25 21 21 23 17 8 8 11 15 23 27 27 29 32 34 38 40 41 41 40 39 38 37
22 21 21 22 22 22 25 27 28 29 31 30 30 30 30 31 33 33 34 35 33 32 32 31 31 31 31 31 31 32 33 31 31 33 32 31 31 32 33 31 31 31 31 29 25 25 24 23 22 19 16 18 22 26 28 24 19 18 18 20 24 27 31 34 32 25 16 16 20 13 6 9 10 11 21 26 29 35 39 41 44 44 44 42 41 42 42 43
20 20 20 21 21 23 26 28 28 28 28 28 28 29 29 31 31 31 33 34 33 32 32 32 32 31 31 31 32 33 33 31 30 29 28 28 27 27 26 24 23 24 26 26 27 27 26 25 24 16 8 7 10 13 14 14 12 13 14 15 16 19 22 25 27 23 14 14 20 16 13 24 30 29 32 35 37 41 43 45 47 47 47 48 48 50 50 51
21 21 21 21 21 23 26 27 27 28 27 27 28 28 30 31 31 30 31 33 33 32 33 34 33 34 34 34 34 34 34 35 33 31 29 29 29 28 28 27 28 30 31 33 34 33 30 29 30 28 23 21 23 24 25 26 25 24 24 26 28 29 31 31 29 27 24 23 27 28 31 38 40 39 39 40 40 43 46 48 50 51 53 53 53 52 52 52
22 22 21 19 18 20 24 25 26 27 27 27 27 28 30 30 29 29 29 30 31 31 31 31 30 30 30 31 32 31 32 33 32 32 33 34 35 34 33 35 36 36 36 36 35 35 34 34 36 37 34 33 35 37 38 38 38 35 34 36 39 39 40 39 36 37 35 28 27 34 39 38 39 41 43 45 46 48 50 51 53 54 56 55 54 52 52 52
23 23 22 21 20 20 22 24 26 26 27 28 29 29 31 31 29 28 27 26 27 27 27 26 26 26 26 27 27 27 28 29 28 30 32 33 35 35 34 35 35 35 34 32 32 31 29 31 36 35 32 32 36 38 39 37 35 34 33 35 39 42 42 42 42 43 39 32 32 41 45 45 47 48 49 50 50 49 49 50 51 52 53 54 54 55 55 54
24 25 24 23 25 25 24 25 26 26 26 28 31 31 31 32 31 29 28 27 26 26 26 26 27 27 27 27 26 26 27 29 31 33 35 35 37 37 37 36 35 34 32 30 28 23 22 25 26 24 23 25 28 32 35 35 35 37 37 35 37 41 44 45 45 45 44 44 46 48 48 49 49 46 45 45 43 44 45 47 48 49 49 50 51 52 53 53
26 27 26 26 26 26 26 26 27 27 27 28 32 32 32 33 34 33 33 33 32 32 32 32 33 34 34 33 33 34 35 36 37 38 38 38 37 35 33 32 30 29 27 27 24 19 19 23 22 23 26 28 31 35 36 36 38 40 40 40 44 47 49 50 52 52 50 48 46 43 41 41 40 39 39 37 37 38 39 40 42 44 45 46 47 49 51 51
27 27 27 27 28 27 28 28 27 28 29 30 31 32 32 34 35 36 37 38 38 39 38 38 38 37 36 36 36 36 35 34 33 32 32 32 31 29 27 25 24 24 24 26 26 26 28 31 33 34 31 35 43 42 36 38 39 38 41 48 52 52 50 48 48 47 43 42 40 39 37 35 35 34 34 32 31 31 32 34 37 39 42 45 46 45 45 44
27 28 28 28 28 28 29 29 29 29 31 31 31 31 32 34 35 36 37 36 36 38 38 37 37 35 33 33 34 33 30 28 28 28 28 29 30 30 29 28 28 30 32 33 34 37 39 38 41 37 28 34 44 40 34 33 27 29 43 51 50 48 44 41 38 34 33 35 36 36 36 34 32 31 29 28 27 26 27 28 31 34 36 37 39 39 40 41
Wind_Direction
270 271 272 273 274 275 277 279 281 284 286 288 290 291 292 292 292 291 290 289 288 287 288 288 288 288 288 287 285 284 282 281 281 281 281 282 284 286 287 288 289 290 291 292 292 291 292 291 291 291 290 289 289 290 291 293 296 295 294 291 289 292 294 298 298 296 295 297 297 294 294 293 292 293 291 290 290 291 293 300 305 304 311 311 306 302 298 298
270 271 272 273 274 275 276 276 278 280 281 283 285 287 289 290 291 290 290 291 290 290 290 289 290 290 290 290 289 288 286 285 285 284 284 283 283 284 286 287 287 288 290 289 289 289 288 287 287 287 287 287 287 286 287 290 292 293 292 288 289 292 293 293 292 292 294 294 292 291 291 290 292 296 293 290 291 292 294 305 309 303 307 307 304 301 300 300
269 269 270 272 273 274 274 276 277 277 279 280 281 283 284 285 286 287 287 288 288 289 289 289 290 290 290 291 291 291 289 288 288 288 287 287 286 286 285 286 287 287 287 288 288 288 288 287 287 286 287 286 285 284 284 286 289 289 287 287 291 295 291 290 292 293 292 290 290 290 290 289 293 294 290 290 291 290 295 308 305 297 301 303 300 300 301 301
269 269 270 271 272 273 274 276 277 278 279 279 280 281 281 282 283 283 284 284 285 285 286 287 286 287 288 287 289 289 288 288 290 292 292 291 291 291 289 288 288 287 287 286 286 287 287 288 288 288 287 286 285 284 284 286 287 286 285 287 292 294 291 292 294 293 289 288 289 290 291 291 292 289 288 290 289 289 296 305 299 295 299 298 295 297 298 298
270 271 271 272 273 274 275 276 277 278 279 280 280 280 280 281 281 282 283 283 283 283 283 284 283 284 284 284 284 285 286 288 292 296 293 291 292 293 292 291 289 289 288 286 286 285 286 287 288 288 287 286 285 284 285 286 285 284 285 288 293 294 293 294 295 291 289 287 288 290 291 291 290 288 289 288 286 290 298 300 297 294 295 294 293 293 292 291
272 273 273 273 274 275 276 277 278 278 279 279 279 279 279 279 280 280 281 281 282 282 282 282 283 283 283 282 281 281 281 282 289 291 286 284 285 286 286 286 285 285 284 284 285 285 286 286 286 286 286 285 284 284 285 284 284 284 286 290 294 295 292 294 295 290 288 286 288 289 288 289 290 291 291 285 283 289 296 298 296 292 290 289 289 289 288 287
271 272 272 273 274 274 275 276 277 277 278 278 279 279 279 279 279 279 280 280 281 281 281 282 283 282 283 282 280 279 275 279 289 286 282 282 282 282 283 283 282 281 281 281 282 284 284 284 284 284 283 283 283 283 283 283 284 284 287 292 294 292 291 295 293 290 289 288 289 287 285 287 291 293 288 282 282 288 294 296 292 286 285 284 283 284 283 282
269 270 271 271 272 273 273 274 275 275 276 276 277 278 278 279 280 280 281 281 282 282 281 282 282 282 283 282 282 278 275 284 291 280 278 279 280 281 282 282 281 281 281 281 282 282 281 282 283 282 280 281 282 282 284 285 284 285 289 292 290 288 291 292 290 290 290 291 291 287 285 288 291 290 283 280 284 290 294 293 287 284 282 281 282 281 279 278
268 269 269 270 271 272 272 273 273 274 275 275 275 276 276 277 278 279 281 282 283 283 282 282 282 282 281 281 282 278 279 292 289 275 275 276 280 282 282 282 280 280 281 281 280 279 279 280 279 278 279 279 280 282 284 284 285 288 290 289 287 288 291 290 289 290 290 291 292 288 288 290 290 287 281 281 287 292 295 289 283 282 280 279 279 278 277 276
268 268 269 270 271 272 273 273 274 274 274 275 275 275 275 275 276 277 278 280 280 281 281 281 282 282 281 282 279 276 286 296 281 276 276 276 280 282 282 281 280 280 279 278 278 278 278 277 276 277 277 278 280 282 283 284 286 288 287 286 287 289 290 289 288 289 290 292 291 289 290 289 287 282 280 286 293 294 295 287 282 280 278 277 276 275 275 275
268 269 269 270 271 272 273 274 274 275 275 276 276 276 276 276 276 276 277 277 277 278 278 279 280 279 280 279 274 277 291 288 278 277 276 278 280 280 280 279 279 278 276 276 276 276 276 275 276 277 277 278 279 281 283 284 286 286 285 284 286 288 288 288 289 291 292 293 293 292 290 287 283 279 282 293 295 294 293 288 284 281 278 276 274 273 273 274
268 269 270 270 271 272 273 274 274 275 275 276 276 276 277 277 277 277 277 277 277 276 276 277 276 276 276 273 272 280 285 281 279 278 277 281 281 278 276 275 275 274 274 274 274 275 275 275 276 276 276 277 279 282 284 285 284 283 284 284 286 287 287 288 290 293 295 295 296 294 290 285 282 281 286 294 293 293 292 288 286 282 279 276 274 273 272 272
268 269 270 270 271 272 273 274 275 275 276 276 277 277 277 278 278 278 278 278 278 277 277 276 275 275 273 271 273 278 278 277 279 280 281 281 277 275 273 273 272 272 272 272 273 274 275 275 276 275 275 276 280 282 283 284 282 282 284 284 286 286 286 291 294 297 298 295 296 294 287 285 285 285 290 295 293 293 291 289 287 283 279 276 274 272 271 271
269 269 270 271 271 272 273 274 275 276 277 277 278 278 278 279 279 279 280 280 280 279 279 278 277 276 274 273 274 274 274 277 279 282 283 279 276 273 270 270 271 271 272 272 274 275 276 276 275 274 275 277 282 283 283 282 279 282 284 282 283 282 286 298 302 302 301 296 296 293 285 286 290 289 292 295 293 292 291 290 288 283 280 277 275 273 272 271
270 271 271 272 272 273 273 274 275 276 277 278 278 278 279 279 279 280 280 280 281 281 280 279 279 279 277 276 276 275 276 279 280 282 281 280 279 275 271 269 269 270 271 273 275 276 276 276 273 273 274 277 281 281 281 279 277 281 280 279 282 281 289 303 302 299 297 292 292 290 286 289 292 292 293 293 291 291 291 289 287 283 281 280 279 277 276 276
272 272 273 274 274 275 275 276 277 278 278 279 280 281 281 281 281 281 281 281 281 281 281 280 280 279 279 280 280 279 279 280 280 281 282 283 281 277 274 270 269 270 271 273 275 276 275 273 271 271 272 274 276 278 278 275 274 278 277 278 284 286 292 300 296 291 291 289 289 289 288 290 291 292 293 291 290 291 289 286 285 283 283 283 284 284 283 283
272 273 274 275 276 276 277 277 278 279 280 281 282 283 283 284 284 284 284 283 283 282 282 281 281 280 280 283 284 282 281 279 279 281 281 281 279 278 275 272 271 270 271 272 273 274 273 271 271 270 270 272 271 270 268 266 272 281 283 284 288 292 293 295 294 293 290 290 291 291 290 289 290 292 292 290 289 288 286 284 283 282 284 286 289 290 289 288
272 274 275 276 277 278 278 278 279 279 280 281 282 283 285 285 286 286 286 285 284 284 283 282 282 282 281 283 285 283 280 279 279 279 279 278 278 277 275 273 272 270 270 271 271 271 271 271 270 266 265 265 264 261 260 269 284 290 290 289 290 291 290 290 293 295 292 289 290 291 290 290 291 293 291 289 288 286 282 280 281 282 286 289 291 290 289 288
273 274 275 276 277 278 279 280 280 281 281 283 285 286 287 287 288 288 287 286 285 284 284 283 282 280 279 281 284 282 279 277 277 277 277 276 275 274 274 273 272 270 269 270 271 271 271 270 264 258 261 267 271 274 276 286 294 291 288 286 286 287 287 288 290 294 295 290 288 288 288 290 292 292 289 287 286 284 280 279 281 285 288 290 290 289 289 290
273 274 276 277 277 278 279 280 281 282 283 285 286 288 289 289 289 287 284 283 284 284 283 283 284 282 281 284 285 282 280 278 276 275 275 274 273 272 272 271 270 269 269 270 272 273 273 267 260 260 270 278 283 286 288 290 289 284 283 282 283 283 284 287 291 295 297 291 289 290 290 290 291 290 288 287 284 281 280 283 286 288 289 289 289 290 293 295
274 276 277 277 278 278 279 280 281 283 284 285 286 287 287 288 290 288 285 282 280 282 282 282 283 282 284 288 285 282 279 276 275 274 273 272 271 271 270 270 270 270 271 271 271 272 270 264 262 270 281 286 287 286 286 284 283 281 281 281 280 281 284 289 293 296 297 292 290 294 294 291 291 289 287 286 285 285 286 288 288 289 290 289 292 296 299 300
274 275 277 277 277 278 279 280 281 282 284 285 285 286 286 288 290 291 291 288 283 282 284 286 285 284 286 286 282 280 277 274 274 272 270 269 267 266 268 269 269 271 272 270 269 269 266 263 268 279 286 286 284 283 283 283 284 282 281 280 279 282 289 292 294 298 299 294 293 298 296 292 292 292 291 290 289 290 291 290 290 292 293 295 299 299 299 298
273 275 276 277 278 279 280 282 282 283 284 285 286 287 288 290 292 293 295 295 292 290 290 290 289 288 288 283 278 275 272 272 272 266 262 261 260 260 262 264 267 270 270 269 269 268 266 268 275 282 281 280 280 281 282 283 283 281 280 278 279 285 290 290 295 301 299 294 296 300 296 294 298 300 300 295 289 293 296 296 298 300 303 306 305 300 300 301
275 277 278 279 280 281 283 285 286 287 287 289 290 292 293 295 297 298 299 299 298 300 300 296 294 293 291 282 274 267 264 266 266 262 258 255 256 257 259 262 266 268 270 271 272 272 271 274 280 281 279 280 280 278 279 280 281 280 278 277 281 290 292 290 297 301 297 294 296 300 299 298 305 318 24 137 295 300 301 303 309 312 314 314 309 307 312 308
279 279 280 280 281 283 285 288 291 292 292 293 294 296 298 299 301 302 304 303 304 310 312 304 298 298 301 287 270 266 265 267 267 266 264 260 259 260 261 263 266 270 273 274 275 275 275 279 282 282 280 280 277 277 278 279 279 278 278 283 289 296 295 294 299 300 298 297 298 307 310 303 292 228 277 296 304 305 309 316 322 328 327 312 313 332 120 250
277 279 280 281 283 284 286 288 291 291 291 292 294 296 298 301 303 305 308 307 307 317 326 331 320 309 356 354 312 305 296 288 285 281 277 270 266 265 265 265 268 271 273 275 276 276 279 284 285 282 281 279 275 277 282 281 278 278 284 296 298 296 295 295 300 298 294 294 295 300 302 292 290 288 295 305 311 313 323 335 342 10 3 319 123 141 160 211
274 277 279 282 284 284 285 287 287 285 284 284 287 291 294 298 303 308 315 312 312 331 29 78 77 39 349 338 317 316 311 304 303 296 292 286 278 274 270 271 273 274 275 276 273 274 282 288 288 286 284 281 278 283 291 290 280 280 290 300 295 294 295 295 296 290 288 292 294 292 280 279 288 292 301 306 308 320 338 2 27 26 2 249 146 137 99 283
272 275 278 280 281 281 283 285 284 282 281 280 283 289 293 300 305 310 319 315 307 340 355 311 309 301 314 314 302 299 295 291 291 285 281 281 281 283 283 284 288 285 282 278 273 277 286 288 287 286 283 284 287 291 294 290 283 285 294 296 291 292 291 289 289 286 290 295 294 291 268 258 280 289 298 300 305 344 8 40 55 37 44 159 166 161 21 356
273 275 279 281 281 282 283 283 282 281 283 290 297 300 301 304 307 308 310 273 278 311 304 291 293 296 298 291 282 276 273 278 280 276 278 279 278 280 282 286 288 286 285 281 279 285 290 288 286 283 282 288 294 297 294 288 286 289 293 290 286 286 283 283 284 283 289 289 273 248 226 250 284 291 296 299 318 25 34 79 89 54 25 232 199 223 332 341
273 275 278 282 283 284 284 285 284 284 287 293 299 301 301 301 301 300 275 247 278 303 301 296 295 295 288 273 265 261 259 267 273 276 279 280 280 281 282 282 281 281 281 280 281 285 287 285 284 283 287 294 294 292 290 289 289 289 287 284 282 282 281 279 276 278 287 278 263 256 256 253 279 295 320 26 3 98 128 136 239 318 319 250 235 273 308 316
273 276 278 280 281 282 282 283 283 285 288 293 296 296 296 296 291 272 231 265 289 298 292 290 295 293 275 257 256 252 253 260 268 275 280 284 287 288 290 290 288 285 284 282 283 285 286 286 287 289 291 291 289 286 286 288 287 284 279 277 280 285 285 278 266 265 257 269 275 277 266 243 240 253 70 151 276 244 253 273 287 304 348 246 271 281 284 288
275 278 280 280 280 279 278 278 279 281 284 287 291 291 291 292 274 247 247 273 294 291 268 270 288 292 285 274 264 252 253 260 268 278 285 285 283 283 286 288 287 287 286 284 284 285 283 282 285 289 288 288 287 284 285 286 282 277 271 266 270 295 305 286 226 220 218 254 276 280 242 230 246 256 264 271 282 286 283 286 290 309 318 300 292 281 272 274
278 279 280 279 278 278 277 278 278 278 279 282 284 284 284 280 261 252 254 262 258 250 264 274 279 280 282 281 279 274 272 272 273 277 280 280 278 276 276 277 279 278 278 282 286 287 285 282 280 282 285 287 285 283 286 289 285 280 272 261 243 215 313 274 242 275 256 260 274 266 236 244 263 271 274 276 283 286 281 291 300 306 308 304 296 282 272 271
277 277 276 276 276 276 275 276 275 275 276 277 277 277 267 251 253 261 264 263 262 267 274 278 280 281 281 281 280 280 280 279 278 278 279 278 276 274 272 272 273 273 274 279 283 283 282 281 280 278 278 279 281 284 288 286 282 280 277 264 241 233 242 246 233 255 278 290 291 245 213 247 272 277 278 273 270 277 289 297 302 308 313 318 320 302 275 263
276 274 273 273 273 272 272 272 271 271 270 271 270 262 250 249 257 264 269 273 273 275 277 279 280 281 281 282 284 286 285 279 276 276 273 269 269 271 272 270 268 267 269 269 273 277 273 275 280 280 276 279 283 284 280 275 270 270 266 250 244 252 253 248 245 252 265 292 277 237 234 258 268 271 271 275 279 283 290 295 297 310 317 321 318 298 276 262
274 274 273 272 271 270 268 267 267 266 265 264 258 250 252 257 262 266 271 276 276 275 277 278 278 279 282 286 287 289 286 277 275 273 266 263 264 266 267 268 268 266 263 262 265 269 268 272 279 282 280 279 280 277 270 263 258 257 249 244 257 266 258 251 253 255 255 265 263 253 257 267 274 278 278 280 284 285 285 282 291 308 305 304 300 282 281 284
273 273 273 273 271 267 264 263 262 260 258 254 248 251 259 263 266 268 269 271 271 271 272 274 274 273 276 280 282 285 286 281 278 272 268 269 267 267 268 268 268 265 262 263 263 261 262 270 274 277 277 273 271 272 266 257 251 244 244 258 269 268 254 249 252 253 238 247 259 253 261 272 277 280 280 281 284 284 290 298 303 305 268 207 221 253 276 292
272 272 272 271 268 265 263 260 258 255 251 247 247 254 261 263 265 267 267 268 268 268 267 265 265 266 267 270 274 278 280 280 277 272 272 272 268 273 277 270 264 261 258 259 262 261 260 265 270 272 273 270 265 265 259 251 249 249 254 261 261 258 251 240 227 227 236 245 254 236 251 264 263 267 276 282 287 293 303 308 304 283 237 223 235 256 279 292
270 270 269 269 267 263 260 257 255 250 242 240 245 252 258 261 264 266 266 266 265 263 263 262 262 264 265 268 271 273 274 274 273 271 270 266 261 267 274 267 261 261 259 256 258 258 254 254 262 262 263 265 259 257 255 251 252 254 253 254 253 253 255 244 233 236 237 246 260 234 234 254 259 266 277 287 292 294 298 299 289 272 264 263 268 279 289 295
269 269 267 268 267 262 259 254 249 242 237 241 248 253 258 263 267 269 268 265 263 261 262 264 264 264 266 268 270 272 272 271 271 269 266 263 262 263 262 262 266 267 266 262 258 256 253 250 253 255 259 265 262 259 263 267 266 261 253 251 251 250 254 256 252 251 251 252 270 255 237 249 259 269 281 288 291 288 286 288 285 281 283 284 286 290 293 294
267 267 266 267 265 262 258 247 242 242 242 246 253 256 259 263 267 270 269 266 264 262 262 264 263 263 265 268 269 271 272 272 271 269 267 265 264 265 264 265 268 268 266 265 261 260 262 261 261 262 262 266 267 269 275 277 275 271 262 256 256 255 257 263 262 254 250 244 244 257 256 255 266 279 286 283 281 280 281 283 285 287 292 293 293 294 293 291
266 265 266 265 262 260 255 248 248 248 247 250 256 259 261 263 266 269 269 267 265 263 263 263 263 264 265 267 269 271 271 272 272 269 269 269 268 269 269 267 266 265 266 268 266 266 270 271 270 270 267 268 271 275 278 278 276 272 264 259 260 260 259 257 257 259 254 249 250 253 257 263 269 277 278 271 271 277 281 284 289 293 295 295 295 295 292 289
265 264 265 263 259 255 250 248 249 246 247 256 261 260 260 261 264 267 267 266 265 265 264 263 264 266 267 268 270 272 273 273 273 272 272 274 273 272 271 269 268 267 266 266 265 266 269 269 269 271 272 273 274 275 276 278 278 272 266 265 263 261 259 254 253 262 265 259 256 253 255 257 252 260 267 269 277 285 288 290 292 294 294 293 293 292 289 288
263 262 260 259 256 250 246 248 250 249 253 260 261 260 260 258 260 264 264 263 264 265 266 266 266 267 267 269 270 271 272 272 273 275 275 274 272 271 272 270 267 265 263 262 266 269 268 265 265 270 279 278 277 279 280 278 272 264 263 263 260 261 261 257 261 271 274 264 261 255 250 253 251 270 280 284 289 290 291 292 292 292 292 291 291 290 289 289
261 258 258 257 254 251 250 254 256 256 257 258 257 259 260 258 260 262 262 263 264 264 266 267 267 267 268 269 269 269 270 269 271 274 273 269 269 271 271 267 263 265 268 272 276 275 269 264 262 260 261 268 273 277 277 275 269 260 256 256 259 264 267 273 281 281 274 271 267 262 273 278 280 285 287 287 289 289 289 291 291 291 292 293 294 293 292 291
260 257 257 257 254 254 256 257 258 258 257 256 256 258 258 259 262 262 261 264 265 265 266 267 268 270 270 269 269 269 269 270 270 271 269 268 271 275 273 271 275 277 278 278 276 273 272 272 270 267 267 269 272 274 275 279 283 283 282 281 279 278 279 286 289 278 275 285 280 275 282 286 285 288 288 287 287 287 288 289 290 291 292 293 294 293 293 294
260 257 255 252 248 249 252 251 251 254 255 253 253 257 262 264 266 266 265 266 267 268 269 268 268 268 268 268 269 269 270 270 270 270 270 271 274 276 276 275 277 278 277 277 275 273 273 274 272 272 272 273 275 275 276 278 282 284 286 285 284 283 283 283 280 277 281 286 281 280 283 284 285 286 287 287 287 287 287 288 289 289 290 290 290 290 291 293
260 258 255 250 246 247 248 247 248 252 254 250 249 255 263 265 265 264 266 266 266 268 269 267 266 266 266 268 269 270 271 269 266 267 270 274 278 280 282 282 281 282 280 277 274 272 271 270 273 275 275 274 275 276 277 278 280 280 281 282 282 282 281 278 276 278 279 274 274 281 282 282 284 284 284 285 286 285 285 285 285 286 286 287 288 289 290 291
259 259 257 253 252 252 251 252 253 254 254 250 249 256 262 264 262 260 259 259 257 258 261 261 260 262 263 264 265 264 263 264 265 267 271 276 280 283 284 283 281 282 281 277 275 272 269 272 276 276 273 268 267 271 275 277 279 279 278 279 280 277 276 277 277 278 277 274 276 280 281 281 283 283 282 282 281 282 282 281 281 282 283 285 287 289 291 292
261 261 261 259 258 257 256 255 254 254 254 249 249 256 260 262 264 263 260 257 256 256 257 258 259 261 262 262 263 262 263 266 270 272 275 277 278 278 279 278 276 274 272 272 271 266 270 275 274 278 282 277 272 273 276 278 280 281 280 280 279 276 275 276 278 280 281 280 281 281 279 280 280 280 280 279 278 278 277 276 278 280 282 285 287 288 289 290
263 263 263 261 261 259 258 257 254 254 255 252 251 255 257 258 261 262 262 262 262 263 263 263 263 264 264 264 266 267 270 273 274 273 272 270 268 268 269 269 269 267 263 265 265 267 275 281 283 287 290 286 283 284 285 284 284 282 279 278 277 276 277 278 280 282 281 279 280 279 277 277 277 277 277 276 273 272 269 270 274 277 281 283 284 284 285 286
263 262 262 261 260 259 259 259 258 256 257 258 257 257 256 257 258 260 262 263 265 266 267 266 267 267 266 265 266 268 269 268 266 262 260 261 264 267 268 269 271 272 272 274 276 278 282 286 290 290 285 282 285 286 285 287 287 278 275 277 278 281 282 281 280 278 275 274 274 275 276 277 277 276 275 272 270 267 266 267 271 273 276 278 280 282 284 287
Height
3188 3188 3188 3187 3187 3187 3187 3187 3187 3187 3187 3187 3187 3187 3187 3187 3187 3187 3187 3186 3186 3186 3186 3186 3186 3185 3185 3185 3185 3185 3185 3185 3185 3184 3184 3184 3184 3183 3183 3183 3183 3182 3182 3182 3182 3181 3181 3181 3180 3180 3180 3180 3179 3179 3178 3178 3178 3176 3175 3174 3174 3174 3173 3174 3174 3172 3171 3171 3170 3170 3170 3168 3168 3169 3167 3166 3166 3167 3167 3168 3168 3167 3167 3166 3165 3164 3163 3163
3187 3187 3187 3186 3186 3186 3186 3186 3186 3186 3186 3186 3186 3186 3186 3186 3185 3185 3185 3185 3185 3185 3185 3185 3185 3184 3184 3184 3184 3183 3183 3184 3184 3183 3183 3183 3182 3182 3181 3181 3181 3181 3180 3180 3180 3180 3179 3179 3179 3178 3178 3178 3177 3177 3176 3176 3176 3175 3174 3172 3172 3173 3172 3171 3172 3171 3170 3169 3168 3168 3168 3166 3166 3166 3165 3164 3164 3164 3165 3166 3166 3164 3165 3164 3163 3162 3162 3161
3185 3185 3185 3185 3185 3185 3185 3185 3185 3185 3185 3185 3185 3184 3184 3184 3184 3184 3184 3184 3184 3184 3184 3184 3183 3183 3183 3183 3182 3182 3182 3182 3182 3182 3181 3181 3181 3180 3180 3180 3179 3179 3178 3178 3178 3178 3177 3177 3177 3176 3176 3176 3175 3175 3174 3174 3174 3173 3171 3169 3170 3171 3170 3169 3170 3169 3168 3167 3166 3166 3166 3165 3165 3164 3162 3161 3161 3162 3163 3164 3164 3162 3163 3163 3161 3160 3159 3159
3184 3184 3184 3184 3184 3184 3184 3184 3183 3183 3183 3183 3183 3183 3183 3183 3183 3182 3182 3182 3182 3182 3182 3182 3182 3182 3181 3181 3181 3180 3180 3180 3181 3180 3180 3180 3179 3179 3178 3178 3178 3177 3177 3176 3176 3176 3175 3175 3175 3174 3174 3173 3173 3173 3172 3173 3172 3170 3169 3168 3168 3169 3168 3167 3168 3167 3166 3165 3164 3163 3163 3162 3163 3162 3160 3159 3157 3159 3162 3163 3162 3160 3160 3160 3159 3157 3157 3156
3182 3182 3182 3182 3182 3182 3182 3182 3182 3182 3182 3182 3182 3181 3181 3181 3181 3181 3180 3180 3180 3180 3180 3180 3180 3180 3180 3179 3179 3179 3178 3178 3179 3179 3179 3178 3178 3177 3177 3177 3176 3176 3175 3174 3174 3174 3173 3173 3173 3172 3172 3171 3171 3170 3170 3170 3170 3167 3166 3166 3167 3167 3165 3165 3166 3164 3164 3163 3162 3161 3161 3160 3159 3159 3158 3156 3154 3156 3160 3160 3159 3158 3157 3156 3156 3155 3154 3154
3180 3180 3180 3180 3180 3180 3180 3180 3180 3180 3180 3180 3180 3180 3179 3179 3179 3179 3179 3178 3178 3178 3178 3178 3178 3178 3177 3177 3177 3177 3176 3176 3178 3178 3177 3176 3176 3176 3175 3175 3175 3174 3173 3173 3172 3172 3172 3171 3170 3170 3169 3169 3168 3168 3168 3168 3167 3165 3164 3164 3165 3164 3163 3163 3163 3161 3161 3160 3160 3159 3158 3157 3156 3156 3155 3151 3151 3154 3157 3158 3157 3156 3154 3153 3153 3152 3152 3151
3178 3178 3178 3178 3178 3178 3178 3178 3178 3178 3178 3178 3177 3177 3177 3177 3177 3177 3177 3177 3176 3176 3176 3176 3176 3176 3175 3175 3175 3175 3173 3175 3177 3176 3174 3174 3173 3173 3173 3173 3173 3172 3171 3171 3171 3170 3169 3169 3168 3168 3167 3166 3166 3166 3165 3165 3165 3163 3162 3163 3163 3161 3160 3161 3159 3157 3157 3157 3157 3156 3155 3155 3154 3153 3150 3146 3148 3153 3154 3155 3154 3152 3151 3150 3150 3150 3149 3149
3176 3176 3176 3176 3176 3176 3176 3176 3176 3175 3175 3175 3175 3175 3175 3175 3175 3175 3175 3174 3174 3174 3174 3174 3173 3173 3173 3173 3173 3171 3170 3173 3175 3174 3172 3171 3171 3171 3171 3171 3170 3169 3169 3169 3168 3168 3167 3166 3166 3165 3164 3164 3164 3163 3163 3162 3162 3160 3160 3160 3159 3158 3158 3158 3156 3154 3154 3154 3154 3152 3151 3153 3152 3149 3144 3142 3146 3150 3152 3152 3150 3149 3148 3147 3147 3147 3146 3146
3173 3173 3173 3173 3174 3174 3174 3173 3173 3173 3173 3172 3172 3172 3172 3172 3172 3172 3172 3172 3172 3172 3171 3171 3171 3171 3171 3171 3170 3168 3168 3172 3172 3171 3170 3169 3169 3169 3169 3168 3168 3167 3167 3166 3166 3165 3165 3164 3164 3163 3162 3162 3161 3161 3161 3159 3158 3158 3157 3157 3156 3155 3155 3154 3153 3152 3151 3151 3150 3147 3148 3150 3150 3146 3139 3140 3144 3146 3148 3148 3146 3146 3145 3145 3144 3144 3143 3142
3171 3171 3171 3171 3171 3171 3171 3171 3171 3171 3170 3170 3170 3170 3170 3170 3170 3170 3170 3170 3170 3169 3169 3169 3168 3168 3168 3169 3168 3165 3167 3170 3169 3168 3168 3167 3167 3167 3167 3166 3165 3165 3164 3163 3163 3162 3162 3161 3161 3160 3160 3159 3159 3159 3158 3157 3155 3155 3154 3152 3153 3152 3152 3151 3149 3149 3148 3147 3146 3143 3143 3146 3147 3142 3136 3139 3142 3142 3144 3144 3143 3142 3141 3141 3140 3140 3139 3139
3168 3168 3168 3168 3169 3169 3169 3168 3168 3168 3168 3167 3167 3167 3167 3167 3167 3167 3167 3167 3167 3166 3166 3166 3166 3166 3166 3166 3165 3163 3166 3167 3165 3166 3165 3165 3166 3165 3164 3163 3162 3162 3161 3160 3160 3159 3159 3158 3158 3158 3157 3156 3156 3156 3155 3155 3153 3152 3150 3148 3150 3149 3148 3147 3146 3146 3145 3143 3142 3139 3137 3140 3142 3138 3135 3138 3139 3138 3139 3139 3139 3138 3138 3138 3136 3136 3135 3135
3166 3166 3166 3166 3166 3166 3166 3166 3166 3165 3165 3165 3164 3164 3164 3164 3164 3164 3164 3164 3164 3163 3163 3163 3163 3163 3163 3163 3163 3163 3164 3163 3162 3162 3162 3163 3163 3162 3162 3160 3160 3158 3158 3157 3157 3156 3156 3155 3155 3155 3154 3153 3154 3154 3153 3152 3150 3148 3146 3144 3146 3146 3145 3145 3144 3144 3143 3139 3139 3135 3130 3132 3136 3134 3135 3137 3135 3134 3134 3134 3135 3134 3134 3133 3132 3132 3131 3131
3163 3163 3163 3163 3163 3163 3163 3163 3163 3162 3162 3162 3162 3162 3161 3161 3161 3161 3161 3161 3160 3160 3160 3160 3160 3160 3159 3159 3161 3161 3160 3160 3159 3159 3159 3160 3160 3159 3159 3157 3156 3155 3154 3154 3153 3154 3153 3152 3152 3151 3151 3151 3152 3152 3150 3149 3146 3145 3144 3140 3141 3141 3140 3142 3142 3141 3140 3136 3135 3133 3124 3123 3130 3132 3134 3135 3131 3130 3129 3129 3130 3130 3129 3129 3128 3128 3127 3128
3160 3160 3160 3160 3160 3160 3160 3160 3160 3159 3159 3159 3158 3158 3158 3158 3158 3158 3157 3157 3157 3157 3157 3156 3156 3156 3155 3156 3159 3158 3157 3157 3156 3156 3156 3156 3156 3156 3155 3154 3153 3152 3151 3151 3151 3151 3150 3149 3148 3147 3148 3149 3150 3149 3148 3145 3142 3143 3141 3137 3137 3136 3136 3141 3141 3137 3136 3132 3130 3128 3118 3116 3125 3129 3131 3132 3128 3125 3124 3124 3125 3124 3124 3124 3124 3123 3123 3124
3156 3156 3157 3157 3157 3157 3156 3156 3156 3156 3155 3155 3155 3155 3155 3154 3154 3154 3154 3153 3153 3153 3153 3152 3152 3152 3150 3152 3155 3154 3154 3154 3153 3153 3152 3152 3152 3152 3152 3151 3150 3149 3148 3148 3148 3148 3147 3146 3144 3144 3146 3147 3148 3146 3144 3141 3138 3141 3138 3133 3134 3132 3131 3137 3140 3136 3132 3128 3126 3123 3114 3111 3119 3124 3127 3128 3124 3122 3120 3119 3120 3119 3118 3118 3118 3119 3118 3119
3153 3153 3153 3153 3154 3153 3153 3153 3153 3152 3152 3152 3151 3151 3151 3151 3151 3151 3150 3150 3149 3149 3149 3148 3149 3148 3146 3148 3151 3151 3151 3151 3150 3149 3149 3149 3148 3148 3148 3147 3146 3146 3145 3145 3144 3144 3143 3142 3141 3142 3143 3145 3145 3143 3140 3136 3135 3138 3135 3130 3131 3130 3128 3130 3134 3135 3131 3124 3121 3119 3111 3108 3113 3118 3122 3123 3121 3118 3115 3114 3115 3114 3113 3113 3113 3114 3114 3115
3150 3150 3150 3151 3151 3150 3150 3150 3150 3149 3149 3148 3148 3148 3147 3147 3147 3147 3147 3146 3146 3145 3145 3145 3145 3144 3143 3144 3147 3148 3148 3147 3147 3146 3146 3146 3145 3145 3144 3143 3143 3142 3142 3142 3141 3141 3139 3138 3138 3138 3140 3142 3142 3141 3136 3133 3133 3134 3133 3129 3128 3129 3127 3125 3127 3132 3129 3120 3115 3114 3107 3104 3108 3113 3116 3118 3118 3114 3111 3109 3110 3109 3108 3109 3109 3109 3109 3109
3147 3147 3147 3148 3148 3148 3147 3147 3147 3147 3146 3145 3145 3145 3144 3144 3144 3144 3143 3143 3142 3142 3141 3141 3141 3140 3140 3141 3143 3145 3145 3144 3144 3144 3144 3143 3142 3141 3140 3139 3139 3138 3138 3138 3137 3137 3136 3135 3134 3135 3137 3138 3138 3137 3133 3130 3132 3132 3131 3128 3126 3126 3125 3123 3122 3126 3126 3117 3111 3108 3102 3099 3103 3107 3109 3112 3113 3110 3107 3106 3105 3105 3105 3105 3105 3104 3104 3104
3144 3144 3144 3144 3145 3145 3144 3144 3144 3144 3144 3143 3142 3142 3141 3140 3140 3140 3139 3139 3139 3139 3138 3137 3138 3137 3137 3138 3140 3140 3140 3141 3141 3141 3141 3140 3138 3137 3136 3135 3134 3134 3134 3134 3134 3133 3133 3131 3130 3130 3133 3134 3134 3134 3131 3130 3131 3129 3128 3126 3124 3122 3120 3121 3119 3121 3121 3112 3106 3106 3098 3096 3099 3101 3103 3105 3107 3104 3102 3102 3102 3102 3102 3101 3100 3099 3099 3100
3141 3141 3141 3141 3141 3141 3141 3141 3141 3141 3141 3141 3140 3139 3138 3137 3136 3135 3135 3135 3135 3135 3134 3134 3133 3132 3133 3135 3137 3136 3135 3136 3137 3138 3137 3136 3135 3133 3132 3130 3130 3129 3130 3131 3130 3129 3130 3125 3123 3126 3130 3131 3132 3132 3129 3128 3128 3125 3124 3123 3121 3118 3115 3116 3117 3117 3119 3106 3098 3101 3095 3091 3093 3094 3097 3099 3099 3099 3098 3099 3098 3099 3099 3096 3096 3095 3095 3096
3138 3138 3138 3138 3138 3138 3138 3138 3138 3138 3138 3138 3138 3137 3135 3134 3132 3130 3129 3130 3133 3132 3130 3131 3130 3127 3129 3132 3132 3131 3130 3130 3132 3133 3133 3132 3131 3129 3127 3126 3125 3125 3126 3128 3127 3126 3124 3118 3118 3125 3128 3129 3129 3129 3127 3125 3125 3123 3121 3119 3116 3115 3111 3112 3115 3114 3115 3103 3092 3095 3089 3083 3087 3087 3090 3094 3093 3093 3095 3095 3094 3094 3094 3092 3092 3092 3092 3093
3135 3135 3135 3135 3135 3135 3135 3135 3135 3135 3135 3135 3135 3134 3132 3131 3129 3127 3123 3121 3126 3129 3127 3127 3126 3122 3125 3127 3126 3126 3124 3124 3127 3128 3128 3128 3126 3125 3123 3121 3121 3121 3122 3124 3123 3121 3117 3112 3117 3124 3126 3126 3125 3124 3123 3122 3121 3120 3119 3116 3112 3112 3109 3106 3110 3111 3111 3101 3090 3091 3082 3073 3080 3082 3083 3088 3088 3090 3091 3091 3091 3090 3090 3088 3088 3088 3088 3088
3132 3132 3132 3132 3132 3133 3132 3132 3132 3132 3132 3132 3131 3131 3130 3128 3127 3125 3121 3115 3116 3123 3123 3121 3120 3118 3120 3121 3120 3121 3118 3118 3121 3122 3124 3122 3121 3122 3119 3117 3117 3117 3117 3118 3119 3117 3112 3111 3118 3123 3122 3122 3120 3120 3121 3119 3118 3116 3115 3113 3108 3110 3109 3101 3103 3107 3106 3099 3090 3088 3075 3065 3073 3075 3075 3081 3083 3086 3088 3087 3088 3087 3085 3084 3083 3083 3083 3084
3129 3129 3129 3129 3130 3130 3130 3130 3130 3129 3130 3129 3128 3128 3127 3126 3124 3121 3120 3113 3109 3115 3118 3116 3114 3112 3114 3114 3114 3114 3113 3113 3115 3116 3119 3118 3117 3117 3116 3115 3114 3113 3113 3115 3115 3112 3108 3111 3116 3119 3118 3117 3116 3116 3117 3116 3112 3110 3110 3110 3106 3107 3107 3101 3100 3101 3099 3096 3093 3087 3072 3061 3068 3071 3070 3076 3079 3082 3083 3083 3084 3082 3080 3079 3078 3079 3080 3080
3126 3126 3126 3127 3127 3127 3127 3127 3127 3126 3126 3126 3126 3125 3124 3123 3122 3119 3117 3112 3106 3109 3111 3110 3110 3109 3109 3110 3109 3110 3110 3111 3112 3112 3114 3114 3115 3114 3113 3113 3112 3110 3111 3112 3112 3106 3105 3111 3114 3114 3113 3113 3112 3111 3114 3113 3107 3104 3105 3107 3105 3104 3104 3101 3100 3097 3092 3092 3092 3091 3078 3061 3062 3069 3068 3071 3075 3076 3079 3079 3079 3077 3076 3076 3076 3077 3078 3078
3123 3123 3124 3124 3124 3124 3124 3124 3124 3124 3123 3124 3124 3123 3122 3121 3120 3118 3116 3110 3105 3106 3107 3106 3107 3107 3108 3108 3108 3109 3109 3109 3110 3110 3111 3112 3112 3112 3111 3111 3110 3109 3109 3109 3108 3103 3102 3108 3110 3110 3109 3109 3109 3108 3110 3110 3104 3100 3102 3105 3104 3102 3101 3099 3099 3097 3091 3089 3088 3093 3091 3070 3056 3062 3066 3067 3070 3072 3074 3076 3075 3075 3074 3073 3074 3075 3075 3076
3120 3121 3121 3121 3121 3121 3121 3122 3122 3121 3121 3122 3121 3121 3121 3119 3118 3117 3115 3110 3105 3104 3105 3105 3106 3107 3107 3108 3108 3109 3108 3108 3109 3109 3110 3110 3109 3109 3109 3108 3108 3108 3107 3107 3104 3101 3102 3105 3107 3107 3107 3106 3106 3106 3107 3108 3103 3098 3099 3102 3101 3099 3099 3096 3096 3095 3090 3087 3084 3086 3093 3082 3057 3054 3063 3065 3067 3070 3071 3073 3073 3073 3072 3072 3073 3073 3073 3074
3118 3118 3118 3118 3118 3119 3119 3119 3119 3119 3119 3119 3119 3119 3118 3118 3118 3117 3117 3114 3105 3102 3104 3104 3104 3106 3107 3107 3108 3107 3107 3107 3108 3107 3108 3108 3107 3108 3107 3106 3107 3106 3105 3105 3100 3099 3102 3103 3103 3104 3105 3103 3103 3104 3105 3105 3102 3098 3098 3099 3098 3097 3096 3094 3094 3092 3090 3086 3081 3079 3088 3087 3062 3052 3061 3063 3064 3069 3069 3071 3072 3071 3071 3072 3072 3072 3072 3073
3115 3115 3115 3115 3115 3116 3116 3116 3117 3117 3116 3116 3117 3117 3116 3117 3116 3115 3118 3115 3103 3099 3103 3102 3103 3105 3105 3105 3105 3105 3105 3105 3105 3105 3106 3106 3106 3106 3105 3105 3105 3103 3103 3101 3097 3098 3101 3100 3100 3100 3101 3101 3101 3101 3101 3101 3100 3098 3097 3095 3094 3095 3093 3093 3091 3090 3091 3084 3076 3076 3084 3085 3063 3049 3058 3061 3061 3067 3067 3069 3070 3070 3072 3073 3072 3072 3071 3071
3112 3112 3112 3112 3112 3113 3113 3113 3114 3114 3113 3114 3114 3114 3114 3115 3114 3115 3115 3108 3100 3100 3101 3100 3100 3102 3101 3102 3102 3103 3103 3103 3103 3104 3104 3104 3104 3104 3104 3103 3103 3101 3100 3098 3096 3097 3098 3097 3096 3097 3098 3098 3098 3098 3097 3098 3097 3096 3095 3092 3092 3091 3089 3091 3089 3088 3091 3080 3072 3074 3079 3083 3067 3049 3054 3059 3059 3063 3065 3066 3068 3069 3072 3072 3073 3072 3070 3070
3108 3109 3109 3109 3109 3110 3110 3111 3111 3111 3111 3111 3111 3112 3112 3112 3112 3112 3107 3099 3099 3100 3099 3099 3099 3098 3099 3099 3100 3100 3101 3101 3101 3101 3102 3102 3102 3102 3102 3102 3101 3099 3097 3096 3094 3094 3094 3093 3093 3093 3095 3095 3095 3095 3094 3094 3094 3093 3092 3090 3090 3089 3087 3088 3087 3089 3090 3077 3070 3072 3075 3079 3065 3049 3053 3058 3058 3062 3063 3064 3066 3067 3070 3071 3073 3072 3070 3069
3105 3105 3105 3105 3106 3106 3107 3107 3108 3108 3108 3108 3109 3109 3110 3110 3107 3101 3097 3097 3100 3098 3097 3098 3097 3097 3098 3098 3098 3099 3099 3099 3099 3100 3100 3100 3100 3100 3101 3101 3100 3098 3094 3093 3093 3091 3089 3089 3089 3089 3090 3091 3091 3091 3090 3090 3090 3090 3089 3090 3091 3090 3088 3087 3086 3088 3085 3075 3071 3073 3075 3071 3054 3046 3054 3057 3057 3061 3061 3062 3064 3066 3068 3069 3070 3070 3068 3066
3100 3101 3101 3102 3102 3103 3103 3104 3105 3105 3105 3106 3107 3106 3108 3108 3098 3091 3093 3098 3099 3096 3095 3096 3095 3095 3096 3095 3096 3097 3097 3097 3097 3098 3098 3097 3097 3097 3098 3098 3098 3097 3093 3091 3090 3088 3084 3083 3084 3085 3085 3086 3086 3087 3087 3086 3086 3087 3086 3088 3090 3090 3090 3087 3086 3084 3079 3072 3071 3073 3075 3065 3048 3046 3053 3054 3056 3057 3058 3060 3061 3063 3064 3064 3065 3066 3064 3063
3097 3097 3097 3097 3098 3099 3099 3100 3101 3101 3102 3103 3103 3104 3105 3100 3090 3087 3091 3093 3093 3094 3094 3093 3092 3092 3091 3090 3091 3092 3093 3093 3093 3094 3094 3093 3092 3092 3093 3094 3095 3094 3092 3090 3088 3085 3083 3078 3078 3081 3082 3081 3082 3083 3084 3084 3083 3083 3083 3084 3084 3085 3085 3083 3081 3079 3073 3071 3071 3072 3070 3059 3047 3048 3050 3051 3053 3054 3055 3057 3058 3059 3060 3061 3062 3062 3060 3058
3092 3093 3093 3093 3094 3094 3095 3096 3096 3096 3098 3099 3100 3100 3096 3088 3084 3086 3088 3088 3089 3090 3090 3090 3089 3088 3086 3086 3086 3088 3089 3088 3087 3089 3088 3088 3088 3087 3088 3089 3090 3091 3090 3088 3085 3083 3081 3075 3073 3076 3077 3078 3078 3079 3081 3080 3079 3078 3079 3079 3078 3078 3078 3076 3075 3073 3072 3071 3068 3066 3060 3051 3046 3045 3046 3048 3050 3051 3054 3055 3055 3056 3057 3059 3060 3058 3055 3053
3087 3087 3087 3088 3089 3090 3090 3090 3091 3092 3093 3094 3095 3091 3084 3080 3083 3085 3085 3085 3087 3086 3086 3087 3086 3084 3082 3082 3082 3083 3084 3084 3084 3084 3084 3084 3083 3083 3083 3084 3085 3086 3085 3084 3082 3081 3077 3072 3072 3072 3072 3074 3075 3075 3077 3076 3075 3075 3074 3074 3074 3074 3074 3072 3070 3069 3071 3069 3062 3058 3052 3047 3045 3041 3040 3045 3047 3049 3052 3052 3052 3053 3053 3055 3054 3051 3051 3049
3081 3081 3081 3083 3084 3084 3084 3084 3086 3087 3088 3089 3087 3081 3076 3077 3080 3081 3082 3083 3083 3083 3084 3084 3083 3082 3081 3079 3079 3080 3081 3081 3081 3081 3081 3081 3079 3078 3078 3080 3080 3080 3081 3081 3079 3078 3075 3069 3069 3070 3068 3070 3072 3071 3072 3071 3071 3071 3071 3072 3072 3071 3070 3070 3068 3067 3068 3065 3057 3053 3049 3047 3047 3039 3035 3042 3045 3046 3049 3049 3050 3049 3048 3048 3046 3046 3046 3045
3075 3076 3076 3077 3078 3078 3078 3079 3080 3081 3083 3082 3078 3073 3073 3073 3074 3076 3078 3079 3079 3080 3081 3080 3080 3079 3078 3077 3077 3078 3078 3078 3078 3078 3078 3078 3075 3074 3074 3076 3076 3076 3077 3078 3074 3074 3073 3067 3066 3067 3065 3064 3067 3067 3065 3065 3067 3067 3068 3069 3069 3067 3065 3066 3066 3064 3064 3060 3053 3050 3046 3045 3044 3037 3034 3039 3042 3043 3044 3045 3046 3044 3043 3042 3041 3041 3041 3040
3070 3070 3070 3071 3072 3072 3073 3074 3074 3076 3076 3074 3071 3068 3068 3068 3070 3072 3073 3074 3075 3076 3076 3076 3076 3076 3075 3075 3074 3075 3076 3075 3075 3076 3075 3074 3072 3072 3072 3073 3073 3073 3073 3074 3071 3070 3071 3067 3063 3064 3062 3060 3061 3061 3059 3060 3063 3064 3064 3065 3065 3064 3062 3061 3060 3058 3057 3053 3048 3045 3042 3039 3039 3037 3036 3038 3040 3040 3040 3040 3040 3039 3038 3038 3037 3037 3036 3036
3065 3065 3064 3066 3067 3067 3068 3069 3069 3069 3068 3066 3065 3065 3065 3065 3067 3068 3069 3070 3071 3072 3071 3072 3073 3072 3071 3071 3071 3071 3072 3071 3072 3072 3071 3071 3070 3069 3070 3070 3070 3070 3069 3070 3069 3067 3067 3064 3060 3060 3060 3057 3056 3056 3056 3058 3061 3061 3061 3061 3061 3060 3059 3057 3055 3053 3053 3050 3046 3044 3039 3036 3037 3037 3038 3039 3036 3034 3036 3036 3034 3033 3033 3033 3033 3032 3032 3032
3060 3059 3059 3061 3062 3062 3064 3063 3063 3063 3061 3061 3062 3062 3062 3063 3063 3064 3065 3065 3066 3067 3068 3068 3069 3069 3068 3068 3068 3068 3068 3067 3067 3068 3066 3066 3067 3066 3066 3067 3067 3067 3066 3065 3065 3063 3062 3060 3058 3057 3056 3052 3051 3053 3055 3056 3057 3057 3057 3057 3057 3057 3057 3055 3049 3048 3048 3045 3042 3041 3034 3030 3035 3038 3038 3036 3030 3028 3033 3032 3029 3028 3028 3028 3029 3028 3027 3027
3055 3054 3055 3057 3057 3057 3059 3058 3058 3058 3057 3057 3058 3059 3060 3060 3060 3060 3061 3061 3061 3063 3065 3064 3064 3065 3064 3064 3064 3064 3064 3062 3062 3063 3061 3061 3062 3062 3062 3063 3063 3063 3063 3061 3061 3060 3059 3057 3054 3052 3051 3049 3049 3051 3051 3050 3052 3053 3052 3052 3053 3052 3053 3051 3044 3042 3041 3037 3036 3036 3029 3024 3030 3036 3033 3029 3026 3026 3029 3027 3025 3024 3024 3023 3023 3023 3022 3021
3051 3050 3051 3052 3052 3053 3054 3053 3053 3054 3052 3053 3055 3056 3057 3056 3056 3057 3057 3057 3057 3058 3059 3059 3060 3060 3060 3060 3061 3061 3060 3058 3056 3057 3056 3056 3057 3057 3058 3059 3059 3059 3058 3056 3055 3056 3054 3052 3049 3047 3046 3045 3046 3046 3045 3045 3046 3046 3046 3047 3047 3046 3046 3044 3039 3038 3036 3033 3032 3032 3025 3020 3025 3029 3027 3024 3024 3025 3023 3022 3022 3021 3020 3019 3018 3017 3016 3015
3047 3047 3047 3048 3048 3048 3048 3047 3048 3048 3048 3050 3051 3052 3053 3053 3052 3053 3053 3053 3054 3054 3054 3055 3056 3056 3056 3057 3057 3056 3057 3055 3052 3052 3053 3053 3053 3053 3053 3054 3054 3054 3053 3051 3051 3051 3050 3048 3047 3045 3043 3042 3042 3042 3041 3040 3041 3041 3041 3042 3041 3041 3041 3038 3035 3035 3031 3028 3029 3026 3020 3019 3022 3024 3024 3022 3021 3020 3019 3018 3017 3015 3014 3014 3012 3012 3011 3010
3043 3043 3043 3044 3044 3044 3043 3043 3044 3045 3046 3047 3047 3047 3048 3048 3048 3049 3049 3049 3050 3050 3050 3050 3051 3052 3052 3053 3052 3052 3053 3052 3050 3049 3049 3049 3049 3050 3049 3049 3049 3050 3050 3048 3048 3048 3046 3045 3045 3044 3042 3040 3039 3039 3038 3037 3037 3037 3037 3038 3037 3037 3037 3034 3033 3031 3027 3024 3025 3022 3017 3017 3020 3020 3020 3020 3019 3017 3015 3014 3012 3010 3008 3007 3006 3006 3005 3004
3039 3039 3039 3040 3040 3040 3039 3040 3040 3041 3042 3043 3043 3043 3043 3043 3043 3045 3045 3045 3045 3046 3046 3046 3047 3047 3047 3048 3047 3047 3048 3049 3048 3047 3046 3046 3046 3046 3046 3046 3046 3047 3046 3046 3046 3045 3042 3040 3041 3040 3038 3037 3036 3036 3036 3035 3033 3033 3033 3033 3033 3033 3032 3032 3029 3026 3024 3021 3018 3018 3017 3013 3014 3016 3015 3015 3016 3014 3012 3010 3008 3006 3005 3003 3002 3000 2999 2997
3034 3035 3036 3036 3036 3036 3036 3036 3037 3037 3037 3038 3038 3038 3038 3038 3039 3041 3041 3041 3041 3042 3042 3042 3042 3043 3043 3043 3043 3043 3043 3044 3044 3042 3042 3042 3042 3042 3043 3043 3042 3043 3043 3042 3042 3041 3039 3036 3036 3035 3034 3034 3033 3032 3032 3031 3029 3029 3029 3028 3028 3027 3027 3027 3023 3020 3023 3018 3010 3013 3016 3011 3010 3013 3011 3010 3011 3010 3008 3007 3005 3003 3000 2999 2998 2996 2995 2993
3030 3030 3032 3032 3032 3032 3032 3032 3033 3033 3034 3035 3034 3034 3034 3035 3036 3036 3037 3037 3037 3038 3038 3038 3038 3039 3039 3039 3040 3039 3039 3039 3038 3038 3038 3037 3038 3038 3038 3038 3038 3037 3038 3037 3036 3037 3035 3031 3031 3031 3030 3030 3029 3028 3028 3027 3025 3026 3026 3024 3023 3022 3020 3019 3016 3016 3019 3014 3006 3009 3011 3006 3006 3009 3007 3005 3006 3004 3003 3003 3001 2999 2996 2994 2992 2990 2989 2988
3026 3026 3027 3028 3028 3028 3029 3029 3030 3030 3031 3031 3030 3030 3030 3031 3032 3033 3033 3033 3033 3034 3034 3034 3034 3034 3035 3036 3036 3035 3035 3035 3034 3034 3034 3034 3034 3034 3033 3033 3033 3033 3033 3032 3032 3033 3030 3027 3028 3027 3025 3024 3025 3024 3023 3023 3021 3020 3020 3020 3019 3016 3014 3013 3011 3011 3011 3007 3004 3006 3004 3001 3001 3001 3000 3000 2999 2998 2998 2997 2996 2995 2992 2990 2988 2986 2984 2982
3021 3021 3023 3023 3023 3024 3025 3026 3026 3026 3027 3028 3026 3026 3027 3027 3027 3028 3028 3029 3028 3029 3030 3029 3029 3029 3030 3031 3031 3030 3030 3031 3030 3030 3030 3030 3030 3030 3029 3028 3028 3029 3029 3028 3029 3029 3027 3024 3024 3024 3021 3019 3020 3020 3019 3019 3017 3014 3013 3014 3013 3010 3008 3008 3005 3004 3003 3000 3000 3000 2997 2996 2995 2994 2994 2994 2993 2993 2993 2991 2991 2990 2988 2986 2985 2983 2981 2978
3017 3017 3018 3018 3019 3020 3020 3021 3022 3022 3022 3023 3022 3023 3024 3024 3023 3023 3023 3024 3023 3023 3024 3024 3023 3024 3025 3025 3025 3025 3025 3026 3026 3026 3026 3026 3026 3026 3025 3024 3024 3024 3024 3025 3025 3025 3024 3021 3020 3021 3017 3013 3015 3015 3013 3013 3011 3007 3006 3006 3004 3003 3002 3001 3000 3000 2998 2995 2994 2994 2992 2990 2990 2989 2989 2988 2988 2988 2987 2987 2987 2986 2984 2982 2980 2979 2977 2975
3012 3013 3014 3014 3014 3015 3015 3016 3017 3017 3017 3018 3018 3019 3020 3020 3020 3020 3020 3019 3019 3019 3019 3019 3019 3019 3020 3020 3021 3021 3021 3022 3022 3022 3022 3022 3022 3022 3021 3021 3021 3020 3020 3020 3019 3019 3020 3017 3016 3017 3012 3007 3010 3010 3007 3008 3006 2999 2998 2998 2997 2997 2996 2994 2994 2995 2994 2991 2990 2989 2986 2985 2986 2985 2985 2984 2983 2983 2982 2982 2982 2981 2980 2978 2976 2974 2973 2971